TimeMDT,TemperatureF,Dew PointF,Humidity,Sea Level PressureIn,VisibilityMPH,Wind Direction,Wind SpeedMPH,Gust SpeedMPH,PrecipitationIn,Events,Conditions,WindDirDegrees,DateUTC
12:35 AM,42.8,33.8,70,30.01,10.0,South,5.8,-,N/A,,Clear,170,2013-03-16 06:35:00
12:55 AM,46.4,30.2,53,30.02,10.0,South,3.5,-,N/A,,Clear,180,2013-03-16 06:55:00
1:15 AM,44.6,32.0,61,30.02,10.0,WNW,3.5,-,N/A,,Clear,290,2013-03-16 07:15:00
1:35 AM,42.8,30.2,61,30.01,10.0,Calm,Calm,-,N/A,,Clear,0,2013-03-16 07:35:00
1:55 AM,42.8,30.2,61,30.00,10.0,Calm,Calm,-,N/A,,Clear,0,2013-03-16 07:55:00
2:15 AM,44.6,30.2,57,30.00,10.0,Calm,Calm,-,N/A,,Clear,0,2013-03-16 08:15:00
2:35 AM,42.8,33.8,70,30.00,10.0,ESE,4.6,-,N/A,,Clear,110,2013-03-16 08:35:00
2:55 AM,42.8,35.6,76,30.00,10.0,South,6.9,-,N/A,,Clear,190,2013-03-16 08:55:00
3:15 AM,44.6,33.8,66,30.00,10.0,SSW,6.9,-,N/A,,Clear,210,2013-03-16 09:15:00
3:35 AM,39.2,32.0,75,30.00,10.0,Calm,Calm,-,N/A,,Clear,0,2013-03-16 09:35:00
3:55 AM,42.8,33.8,70,30.00,10.0,Calm,Calm,-,N/A,,Clear,0,2013-03-16 09:55:00
4:15 AM,42.8,33.8,70,29.99,10.0,ENE,4.6,-,N/A,,Clear,60,2013-03-16 10:15:00
4:35 AM,42.8,33.8,70,29.99,10.0,East,3.5,-,N/A,,Clear,90,2013-03-16 10:35:00
4:55 AM,41.0,33.8,76,29.99,10.0,East,3.5,-,N/A,,Clear,80,2013-03-16 10:55:00
5:15 AM,41.0,33.8,76,29.99,10.0,East,3.5,-,N/A,,Clear,80,2013-03-16 11:15:00
5:35 AM,39.2,33.8,81,29.99,10.0,Calm,Calm,-,N/A,,Clear,0,2013-03-16 11:35:00
5:55 AM,42.8,33.8,70,30.00,10.0,Calm,Calm,-,N/A,,Clear,0,2013-03-16 11:55:00
6:15 AM,39.2,33.8,81,30.00,10.0,Calm,Calm,-,N/A,,Clear,0,2013-03-16 12:15:00
6:35 AM,39.2,33.8,81,30.00,10.0,South,3.5,-,N/A,,Clear,190,2013-03-16 12:35:00
6:51 AM,41.0,32.0,70,30.01,15.0,Variable,3.5,-,N/A,,Mostly Cloudy,0,2013-03-16 12:51:00
7:57 AM,44.6,33.8,66,30.01,15.0,Variable,3.5,-,N/A,,Mostly Cloudy,0,2013-03-16 13:57:00
8:57 AM,44.6,35.6,71,30.03,15.0,Variable,3.5,-,N/A,,Scattered Clouds,0,2013-03-16 14:57:00
9:48 AM,48.2,33.8,58,30.04,15.0,Variable,4.6,-,N/A,,Scattered Clouds,0,2013-03-16 15:48:00
12:47 PM,51.8,33.8,50,30.05,15.0,Variable,3.5,-,N/A,,Scattered Clouds,0,2013-03-16 18:47:00
12:48 PM,53.6,33.8,47,30.03,15.0,Variable,4.6,-,N/A,,Partly Cloudy,0,2013-03-16 18:48:00
1:47 PM,55.4,30.2,38,30.02,15.0,West,9.2,-,N/A,,Scattered Clouds,280,2013-03-16 19:47:00
2:55 PM,60.8,26.6,27,29.98,15.0,NW,11.5,-,N/A,,Scattered Clouds,310,2013-03-16 20:55:00
3:55 PM,59.0,23.0,25,29.96,15.0,NW,12.7,-,N/A,,Scattered Clouds,310,2013-03-16 21:55:00
4:55 PM,59.0,21.2,23,29.95,15.0,NW,11.5,-,N/A,,Partly Cloudy,310,2013-03-16 22:55:00
5:47 PM,53.6,24.8,33,29.95,15.0,West,11.5,-,N/A,,Mostly Cloudy,270,2013-03-16 23:47:00
6:56 PM,48.2,28.4,46,29.92,15.0,NW,3.5,-,N/A,,Mostly Cloudy,320,2013-03-17 00:56:00
7:52 PM,48.2,28.4,46,29.91,15.0,West,4.6,-,N/A,,Mostly Cloudy,280,2013-03-17 01:52:00
8:47 PM,46.4,26.6,46,29.89,15.0,NW,3.5,-,N/A,,Mostly Cloudy,320,2013-03-17 02:47:00
9:15 PM,46.4,28.4,50,29.89,10.0,NE,3.5,-,N/A,,Clear,50,2013-03-17 03:15:00
9:35 PM,46.4,28.4,50,29.89,10.0,South,3.5,-,N/A,,Clear,170,2013-03-17 03:35:00
9:55 PM,48.2,28.4,46,29.88,10.0,Calm,Calm,-,N/A,,Clear,0,2013-03-17 03:55:00
10:15 PM,48.2,26.6,43,29.88,10.0,Calm,Calm,-,N/A,,Clear,0,2013-03-17 04:15:00
10:35 PM,44.6,33.8,66,29.88,10.0,South,5.8,-,N/A,,Clear,170,2013-03-17 04:35:00
10:55 PM,42.8,30.2,61,29.87,10.0,South,4.6,-,N/A,,Clear,170,2013-03-17 04:55:00
11:15 PM,41.0,30.2,65,29.86,10.0,Calm,Calm,-,N/A,,Clear,0,2013-03-17 05:15:00
11:35 PM,42.8,30.2,61,29.85,10.0,Calm,Calm,-,N/A,,Clear,0,2013-03-17 05:35:00
11:55 PM,42.8,30.2,61,29.84,10.0,Calm,Calm,-,N/A,,Clear,0,2013-03-17 05:55:00